Location: Newark
(33.1119°N, 7.4058°W)
Time: 07:41:54
(UTC+00:00)

Hubble Space Telescope - Pass Details

Date: 17 November 2019
Orbit: 536 x 540 km, 28.5° (Epoch: 12 December)

Event Time Altitude Azimuth Distance (km) Brightness Sun altitude
Rises 20:00:56 0° 241° (WSW) 2,668 5.2 -32.2°
Reaches altitude 10° 20:03:21 10° 231° (SW) 1,780 4.0 -32.7°
Enters shadow 20:03:55 13° 227° (SW) 1,586 3.6 -32.8°
